Location: Byhalia Creek
(34.8270°N, 89.8040°W)
Time: 20:55:21
(UTC+00:00)

ALOS - Pass Details

Date: 22 April 2026
Orbit: 660 x 663 km, 98.1° (Epoch: 21 May)

Event Time Altitude Azimuth Distance (km) Brightness Sun altitude
Rises 08:45:49 0° 12° (NNE) 2,997 6.3 -28.3°
Reaches altitude 10° 08:48:03 10° 12° (NNE) 2,081 5.4 -28.0°
Enters shadow 08:51:45 59° 13° (NNE) 761 2.6 -27.4°
